(107118) = 2001 AL39

Discovered at Kitt Peak on 2001-01-02 by Spacewatch.

Orbit

Orbit type: Main Belt

Note: WebGL enabled browser required.

epoch2024-03-31.0
epoch JD2460400.5
perihelion date2023-08-29.38999
perihelion JD2460185.89000
argument of perihelion (°)31.66113
ascending node (°)82.75981
inclination (°)3.28892
eccentricity0.1480348
perihelion distance (AU)2.0695280
Tisserand w.r.t. Jupiter3.5
ΔV w.r.t. Earth (km/sec)9.0
semimajor axis (AU)2.4291226
mean anomaly (°)55.87015
mean daily motion (°/day)0.26033340
aphelion distance (AU)2.789
period (years)3.79
P-vector [x]-0.41257966
P-vector [y]0.82331882
P-vector [z]0.38977447
Q-vector [x]-0.90914184
Q-vector [y]-0.39890777
Q-vector [z]-0.11972349
absolute magnitude16.54
phase slope0.15
uncertainty0
referenceE2024-GI3
observations used842
oppositions15
arc length (days)11466
first opposition used1992
last opposition used2024
residual rms (arc-secs)0.67
perturbers coarse indicatorM-v
perturbers precise indicator003Ek
first observation date used1992-11-20.0
last observation date used2024-04-12.0
computer nameMPCLINUX
JD of orbit computation2456937.438110
perihelion JD uncertainty (days)8.4539E-05
argument of perihelion uncertainty (°)8.3368E-05
ascending node uncertainty (°)8.0707E-05
inclination uncertainty (°)4.2363E-06
eccentricity uncertainty 2.9035E-08
perihelion distance uncertainty (AU)7.2239E-08
Minimum Orbit Intersection Distances (in AU)
for orbit epoch: 2460400.5, reference: E2024-GI3
Mercury1.74715
Venus1.35088
Earth1.08733
Mars0.43113
Jupiter2.30493
Saturn6.90383
Uranus16.2059
Neptune27.322

Observations

841 total observations over interval: 1992 11 20.34280 – 2024 03 18.331284
These data are available for download (format description).

Date (UT) J2000 RA J2000 Dec Magn Location Ref
1992 11 20.34280 03 02 39.21 +14 05 18.2 19.1 V 691 – Steward Observatory, Kitt Peak-Spacewatch MPS 90420
1992 11 20.35982 03 02 38.16 +14 05 16.0   691 – Steward Observatory, Kitt Peak-Spacewatch MPS 90420
1992 11 20.37680 03 02 37.10 +14 05 13.5   691 – Steward Observatory, Kitt Peak-Spacewatch MPS 90420
2001 01 02.50619 09 21 48.73 +19 10 13.8 19.7 V 691 – Steward Observatory, Kitt Peak-Spacewatch MPS 25612
2001 01 02.52682 09 21 48.25 +19 10 19.2 19.4 V 691 – Steward Observatory, Kitt Peak-Spacewatch MPS 25612
2001 01 02.54719 09 21 47.78 +19 10 24.6 19.2 V 691 – Steward Observatory, Kitt Peak-Spacewatch MPS 25612
2001 01 04.37736 09 21 06.39 +19 19 03.0 19.0   704 – Lincoln Laboratory ETS, New Mexico MPS 25612
2001 01 04.39253 09 21 06.02 +19 19 08.0 19.7   704 – Lincoln Laboratory ETS, New Mexico MPS 25612
2001 01 04.40767 09 21 05.60 +19 19 12.0 19.2   704 – Lincoln Laboratory ETS, New Mexico MPS 25612
2001 01 04.42282 09 21 05.15 +19 19 16.8 19.0   704 – Lincoln Laboratory ETS, New Mexico MPS 25612
2001 01 04.43800 09 21 04.75 +19 19 21.1 18.3   704 – Lincoln Laboratory ETS, New Mexico MPS 25612
2001 01 19.33279 09 11 27.57 +20 43 00.3 19.1   704 – Lincoln Laboratory ETS, New Mexico MPS 27922
2001 01 19.34895 09 11 26.67 +20 43 06.2 19.6   704 – Lincoln Laboratory ETS, New Mexico MPS 27922
2001 01 19.36433 09 11 25.83 +20 43 10.8 19.2   704 – Lincoln Laboratory ETS, New Mexico MPS 27922
2001 01 19.37972 09 11 25.01 +20 43 16.2 19.3   704 – Lincoln Laboratory ETS, New Mexico MPS 27922
2001 01 19.39512 09 11 24.19 +20 43 22.4 18.9   704 – Lincoln Laboratory ETS, New Mexico MPS 27922
2001 02 03.31103 08 57 15.28 +22 10 52.1 18.6   704 – Lincoln Laboratory ETS, New Mexico MPS 27922
2001 02 03.32602 08 57 14.31 +22 10 56.5 18.9   704 – Lincoln Laboratory ETS, New Mexico MPS 27922
2001 02 03.34087 08 57 13.41 +22 11 00.8 18.9   704 – Lincoln Laboratory ETS, New Mexico MPS 27922
2001 02 03.35571 08 57 12.47 +22 11 05.3 19.0   704 – Lincoln Laboratory ETS, New Mexico MPS 27922
2001 02 03.37055 08 57 11.53 +22 11 09.8 19.2   704 – Lincoln Laboratory ETS, New Mexico MPS 27922
2001 02 17.23597 08 44 39.54 +23 10 22.2 18.7   704 – Lincoln Laboratory ETS, New Mexico MPS 27922
2001 02 17.24987 08 44 38.77 +23 10 25.6 19.4   704 – Lincoln Laboratory ETS, New Mexico MPS 27922
2001 02 17.26387 08 44 38.10 +23 10 28.4 19.4   704 – Lincoln Laboratory ETS, New Mexico MPS 27922
2001 02 17.27772 08 44 37.38 +23 10 30.6 19.2   704 – Lincoln Laboratory ETS, New Mexico MPS 27922
2001 02 17.29164 08 44 36.83 +23 10 32.6 19.4   704 – Lincoln Laboratory ETS, New Mexico MPS 27922
2001 02 21.19884 08 41 47.69 +23 21 18.1 19.0 R 699 – Lowell Observatory-LONEOS MPS 27922
2001 02 21.23653 08 41 45.99 +23 21 23.8   699 – Lowell Observatory-LONEOS MPS 27922
2001 02 21.27401 08 41 44.42 +23 21 29.3   699 – Lowell Observatory-LONEOS MPS 27922
2001 02 21.31158 08 41 42.80 +23 21 34.4   699 – Lowell Observatory-LONEOS MPS 27922
2001 02 22.23972 08 41 06.73 +23 23 41.4 19.4 R 699 – Lowell Observatory-LONEOS MPS 27922
2001 02 22.25141 08 41 06.31 +23 23 42.9   699 – Lowell Observatory-LONEOS MPS 27922
2001 02 22.26307 08 41 05.79 +23 23 43.8   699 – Lowell Observatory-LONEOS MPS 27922
2001 02 22.27479 08 41 05.36 +23 23 46.3   699 – Lowell Observatory-LONEOS MPS 27922
2003 09 20.33373 00 22 08.18 -03 28 27.7 19.6 R 699 – Lowell Observatory-LONEOS MPS 85135
2003 09 20.33870 00 22 07.87 -03 28 29.0   699 – Lowell Observatory-LONEOS MPS 85135
2003 09 20.34370 00 22 07.58 -03 28 30.3   699 – Lowell Observatory-LONEOS MPS 85135
2003 09 20.34867 00 22 07.34 -03 28 32.0   699 – Lowell Observatory-LONEOS MPS 85135
2003 09 22.34475 00 20 19.74 -03 40 28.8 19.9 V 691 – Steward Observatory, Kitt Peak-Spacewatch MPS 85135
2003 09 22.37118 00 20 18.25 -03 40 38.3 19.7 V 691 – Steward Observatory, Kitt Peak-Spacewatch MPS 85135
2003 09 22.40500 00 20 16.35 -03 40 50.5 19.9 V 691 – Steward Observatory, Kitt Peak-Spacewatch MPS 85135
2003 09 28.23083 00 14 54.45 -04 15 00.7 19.3   704 – Lincoln Laboratory ETS, New Mexico MPS 86143
2003 09 28.24427 00 14 53.73 -04 15 04.3 19.6   704 – Lincoln Laboratory ETS, New Mexico MPS 86143
2003 09 28.25711 00 14 52.95 -04 15 09.2 19.6   704 – Lincoln Laboratory ETS, New Mexico MPS 86143
2003 09 28.26965 00 14 52.25 -04 15 13.2 19.5   704 – Lincoln Laboratory ETS, New Mexico MPS 86143
2003 09 28.28237 00 14 51.52 -04 15 18.4 19.6   704 – Lincoln Laboratory ETS, New Mexico MPS 86143
2005 03 03.33396 11 45 26.87 +08 04 27.8 18.2 R 703 – Catalina Sky Survey MPS 127114
2005 03 03.34424 11 45 26.32 +08 04 32.0 18.6 R 703 – Catalina Sky Survey MPS 127114
2005 03 03.35452 11 45 25.78 +08 04 36.0 18.3 R 703 – Catalina Sky Survey MPS 127114
2005 03 03.36485 11 45 25.19 +08 04 39.9 18.4 R 703 – Catalina Sky Survey MPS 127114
2005 03 04.36069 11 44 33.06 +08 10 58.2 18.6   704 – Lincoln Laboratory ETS, New Mexico MPS 127810
2005 03 04.37214 11 44 32.47 +08 11 05.2 18.6   704 – Lincoln Laboratory ETS, New Mexico MPS 127810
2005 03 04.38359 11 44 31.83 +08 11 09.3 18.9   704 – Lincoln Laboratory ETS, New Mexico MPS 127810
2005 03 04.39626 11 44 31.13 +08 11 13.1 18.7   704 – Lincoln Laboratory ETS, New Mexico MPS 127810
2005 03 04.40792 11 44 30.47 +08 11 17.1 19.2   704 – Lincoln Laboratory ETS, New Mexico MPS 127810
2005 03 08.24269 11 41 04.20 +08 35 20.7 18.3 R 699 – Lowell Observatory-LONEOS MPS 127810
2005 03 08.26212 11 41 03.12 +08 35 28.1   699 – Lowell Observatory-LONEOS MPS 127810
2005 03 08.28160 11 41 01.99 +08 35 35.8   699 – Lowell Observatory-LONEOS MPS 127810
2005 03 08.30106 11 41 00.85 +08 35 42.7   699 – Lowell Observatory-LONEOS MPS 127810
2005 03 09.24741 11 40 08.81 +08 41 31.2 18.0 R 699 – Lowell Observatory-LONEOS MPS 127810
2005 03 09.26686 11 40 07.78 +08 41 39.7   699 – Lowell Observatory-LONEOS MPS 127810
2005 03 09.28630 11 40 06.65 +08 41 45.8   699 – Lowell Observatory-LONEOS MPS 127810
2005 03 09.30575 11 40 05.54 +08 41 53.8   699 – Lowell Observatory-LONEOS MPS 127810
2005 03 09.34498 11 40 03.26 +08 42 08.2 18.5   704 – Lincoln Laboratory ETS, New Mexico MPS 127810
2005 03 09.35653 11 40 02.56 +08 42 12.1 19.0   704 – Lincoln Laboratory ETS, New Mexico MPS 127810
2005 03 09.36871 11 40 01.88 +08 42 17.0 18.9   704 – Lincoln Laboratory ETS, New Mexico MPS 127810
2005 03 09.38031 11 40 01.18 +08 42 21.5 19.1   704 – Lincoln Laboratory ETS, New Mexico MPS 127810
2005 03 09.39190 11 40 00.53 +08 42 25.6 19.2   704 – Lincoln Laboratory ETS, New Mexico MPS 127810
2005 03 12.33136 11 37 17.54 +09 00 02.2 19.2   704 – Lincoln Laboratory ETS, New Mexico MPS 128940
2005 03 12.34298 11 37 16.86 +09 00 06.8 18.9   704 – Lincoln Laboratory ETS, New Mexico MPS 128940
2005 03 12.35512 11 37 16.15 +09 00 11.5 19.1   704 – Lincoln Laboratory ETS, New Mexico MPS 128940
2005 03 12.36613 11 37 15.52 +09 00 15.0 19.0   704 – Lincoln Laboratory ETS, New Mexico MPS 128940
2005 03 12.37716 11 37 14.86 +09 00 18.8 19.5   704 – Lincoln Laboratory ETS, New Mexico MPS 128940
2005 03 16.28769 11 33 38.27 +09 22 22.1 18.5   704 – Lincoln Laboratory ETS, New Mexico MPS 128940
2005 03 16.32253 11 33 36.24 +09 22 33.1 19.9   704 – Lincoln Laboratory ETS, New Mexico MPS 128940
2005 03 16.33375 11 33 35.58 +09 22 36.4 18.9   704 – Lincoln Laboratory ETS, New Mexico MPS 128940
2005 03 30.28991 11 21 56.55 +10 21 51.0 18.5 R 703 – Catalina Sky Survey MPS 130163
2005 03 30.29922 11 21 56.14 +10 21 51.7 18.9 R 703 – Catalina Sky Survey MPS 130163
2005 03 30.30856 11 21 55.72 +10 21 54.4 18.9 R 703 – Catalina Sky Survey MPS 130163
2005 03 30.31785 11 21 55.31 +10 21 56.6 18.3 R 703 – Catalina Sky Survey MPS 130163
2005 04 06.22757 11 17 32.35 +10 37 16.6 18.8 R 703 – Catalina Sky Survey MPS 130627
2005 04 06.23663 11 17 31.99 +10 37 17.9 18.7 R 703 – Catalina Sky Survey MPS 130627
2005 04 06.24581 11 17 31.59 +10 37 18.4 18.7 R 703 – Catalina Sky Survey MPS 130627
2005 04 06.25499 11 17 31.34 +10 37 20.1 18.7 R 703 – Catalina Sky Survey MPS 130627
2005 04 11.23055 11 15 08.31 +10 42 01.2 19.2 R 699 – Lowell Observatory-LONEOS MPS 131555
2005 04 11.24761 11 15 07.92 +10 42 01.7   699 – Lowell Observatory-LONEOS MPS 131555
